Location: Aurora Center
(43.5271°N, 98.5894°W)
Time: 08:08:39
(UTC-05:00)

Vanguard 2 Rocket - Visible Passes

Search period start: 14 July 2024 00:00
Search period end: 24 July 2024 00:00
Orbit: 555 x 3303 km, 32.9° (Epoch: 13 July)

Date Brightness Start Highest point End Pass type
(mag) Time Alt. Az. Time Alt. Az. Time Alt. Az.
14 Jul 8.8 00:49:21 10° WSW 00:59:34 52° S 01:16:14 10° ESE visible
14 Jul 9.4 03:02:35 10° W 03:15:03 39° SSW 03:32:08 10° SE visible
14 Jul 10.2 05:19:52 10° WSW 05:30:25 19° SW 05:42:12 10° S visible
14 Jul 8.5 21:36:40 10° SW 21:42:50 33° SSE 21:52:45 10° E visible
14 Jul 8.6 23:47:18 10° WSW 23:56:01 50° S 00:10:52 10° ESE visible
15 Jul 9.1 01:59:42 10° W 02:10:56 44° SSW 02:27:50 10° SE visible
15 Jul 9.9 04:14:44 10° W 04:26:23 26° SSW 04:40:40 10° SSE visible
15 Jul 8.4 22:45:34 10° WSW 22:52:55 45° SSE 23:05:28 10° ESE visible
16 Jul 8.8 00:57:16 10° WSW 01:07:05 47° S 01:22:59 10° ESE visible
16 Jul 9.5 03:10:54 10° W 03:22:19 31° SSW 03:37:44 10° SSE visible
16 Jul 10.3 05:31:44 10° WSW 05:37:25 12° SW 05:43:31 10° SSW visible
16 Jul 8.3 21:44:09 10° SW 21:50:14 37° SSE 22:00:15 10° E visible
16 Jul 8.5 23:55:10 10° WSW 00:03:35 47° S 00:17:50 10° ESE visible
17 Jul 9.2 02:07:49 10° W 02:18:20 37° SSW 02:33:53 10° SE visible
17 Jul 10.0 04:24:18 10° WSW 04:33:32 18° SW 04:44:27 10° S visible
17 Jul 8.3 22:53:21 10° WSW 23:00:28 45° S 23:12:38 10° ESE visible
18 Jul 8.9 01:05:16 10° WSW 01:14:35 40° SSW 01:18:11 36° SSE visible
18 Jul 9.9 03:19:40 10° WSW 03:36:18 19° S 03:42:34 10° SSE visible
18 Jul 8.1 21:51:47 10° SW 21:57:44 39° SSE 22:07:36 10° ESE visible
19 Jul 8.6 00:03:06 10° WSW 00:11:08 43° S 00:16:36 30° SE visible
19 Jul 9.5 02:16:12 10° WSW 02:40:41 - SSE 02:21:58 25° SW visible
19 Jul 8.3 23:01:13 10° WSW 23:08:03 42° S 23:15:50 20° ESE visible
20 Jul 9.1 01:13:27 10° WSW 01:21:14 33° SSW 01:21:14 33° SSW visible
20 Jul10.303:49:47S03:49:47S03:26:39WSWvisible
20 Jul 8.1 21:59:33 10° WSW 22:05:18 39° S 22:14:49 10° ESE visible
21 Jul 8.7 00:11:08 10° WSW 00:18:44 36° SSW 00:20:52 34° S visible
21 Jul 9.9 02:25:07 10° WSW 02:26:19 13° WSW 02:26:19 13° WSW visible
21 Jul 8.4 23:09:09 10° WSW 23:15:41 37° S 23:20:43 25° SE visible
22 Jul 9.4 01:21:56 10° WSW 01:26:10 22° SW 01:26:10 22° SW visible
22 Jul 8.1 22:07:24 10° WSW 22:12:56 36° S 22:20:44 13° ESE visible
23 Jul 8.9 00:19:23 10° WSW 00:26:11 28° SSW 00:26:11 28° SSW visible
23 Jul 8.6 23:17:14 10° WSW 23:23:19 31° S 23:26:19 26° SSE visible
